{"data":{"norad_id":67471,"intl_designator":"2026-008AC","name":"STARLINK-36334","alt_names":[],"object_type":"PAYLOAD","status":"ACTIVE","operator":null,"country":"US","launch_date":"2026-01-14","launch_site_code":"AFETR","launch_vehicle":null,"mission":null,"orbit_class":"UNKNOWN","rcs_meters":null,"size_class":null,"mass_kg":null,"dimensions":null,"purposes":["comms"],"wikipedia_slug":null,"has_3d_model":false,"image_url":null,"decayed_at":null,"tle_current":{"epoch":"2026-05-25T05:32:44.628576Z","epoch_age_seconds":48447,"freshness":"FRESH","line1":"1 67471U 26008AC  26145.23107209  .00018587  00000+0  68325-3 0  9998","line2":"2 67471  43.0026 133.3448 0002144 285.6624  74.3991 15.27580238 21278","mean_motion":15.27580238,"eccentricity":0.0002144,"inclination_deg":43.0026,"raan_deg":133.3448,"arg_perigee_deg":285.6624,"mean_anomaly_deg":74.3991,"bstar":0.00068325,"rev_number":2127,"period_min":94.266734026707,"perigee_km":481.57734523593,"apogee_km":484.51942152832,"semimajor_km":6861.1853833821,"source":"CELESTRAK","updated_at":"2026-05-25T13:38:21.565261Z"}}}